{"data":{"norad_id":68231,"intl_designator":"2026-053AA","name":"STARLINK-37104","alt_names":[],"object_type":"PAYLOAD","status":"ACTIVE","operator":null,"country":"US","launch_date":"2026-03-17","launch_site_code":"AFWTR","launch_vehicle":null,"mission":null,"orbit_class":"UNKNOWN","rcs_meters":null,"size_class":null,"mass_kg":null,"dimensions":null,"purposes":["comms"],"wikipedia_slug":null,"has_3d_model":false,"image_url":null,"decayed_at":null,"tle_current":{"epoch":"2026-09-18T21:46:10.198272Z","epoch_age_seconds":188785,"freshness":"STALE","line1":"1 68231U 26053AA  26261.90706248  .00018714  00000+0  58055-3 0  9995","line2":"2 68231  97.2849 135.7751 0002134  92.6417 267.5070 15.33443692 29838","mean_motion":15.33443692,"eccentricity":0.0002134,"inclination_deg":97.2849,"raan_deg":135.7751,"arg_perigee_deg":92.6417,"mean_anomaly_deg":267.507,"bstar":0.00058055,"rev_number":2983,"period_min":93.906284757145,"perigee_km":464.08662398892,"apogee_km":467.00750834836,"semimajor_km":6843.6840661686,"source":"CELESTRAK","updated_at":"2026-09-20T09:00:43.838634Z"}}}